| time (UTC) | temp F | wind direction | speed MPH | gust MPH | rain 1hr in | rain 24hr in | rain mn in | humidity % | barometer mb |
| 20260508175613 | 60 | 116 | 1.0 | 3.0 | 0.00 | 0.00 | 0.00 | 90 | 1019.4 |
| 20260508175114 | 60 | 104 | 0.0 | 3.0 | 0.00 | 0.00 | 0.00 | 90 | 1019.3 |
| 20260508174613 | 60 | 107 | 1.0 | 3.0 | 0.00 | 0.00 | 0.00 | 90 | 1019.3 |
| 20260508174115 | 60 | 106 | 0.0 | 4.0 | 0.00 | 0.00 | 0.00 | 91 | 1019.3 |
| 20260508173613 | 60 | 102 | 2.0 | 4.0 | 0.00 | 0.00 | 0.00 | 91 | 1019.3 |
| 20260508173114 | 60 | 102 | 0.0 | 3.0 | 0.00 | 0.00 | 0.00 | 92 | 1019.3 |
| 20260508172612 | 60 | 100 | 1.0 | 2.0 | 0.00 | 0.00 | 0.00 | 92 | 1019.2 |
| 20260508172114 | 59 | 99 | 1.0 | 4.0 | 0.00 | 0.00 | 0.00 | 93 | 1019.2 |
| 20260508171613 | 59 | 97 | 1.0 | 4.0 | 0.00 | 0.00 | 0.00 | 93 | 1019.2 |
| 20260508171113 | 59 | 104 | 0.0 | 4.0 | 0.00 | 0.00 | 0.00 | 93 | 1019.1 |
| 20260508170613 | 59 | 104 | 1.0 | 4.0 | 0.00 | 0.00 | 0.00 | 93 | 1019.0 |
| 20260508170112 | 59 | 106 | 0.0 | 2.0 | 0.00 | 0.00 | 0.00 | 94 | 1019.0 |
| 20260508165611 | 59 | 107 | 1.0 | 2.0 | 0.00 | 0.00 | 0.00 | 94 | 1019.0 |
| 20260508165112 | 58 | 107 | 1.0 | 3.0 | 0.00 | 0.00 | 0.00 | 94 | 1019.1 |
| 20260508164611 | 58 | 107 | 0.0 | 3.0 | 0.00 | 0.00 | 0.00 | 94 | 1019.1 |
| 20260508164112 | 58 | 106 | 0.0 | 3.0 | 0.00 | 0.00 | 0.00 | 94 | 1019.1 |
| 20260508163611 | 58 | 106 | 0.0 | 3.0 | 0.00 | 0.00 | 0.00 | 94 | 1019.1 |
| 20260508163112 | 58 | 109 | 1.0 | 4.0 | 0.00 | 0.00 | 0.00 | 94 | 1019.1 |
| 20260508162611 | 58 | 109 | 2.0 | 4.0 | 0.00 | 0.00 | 0.00 | 94 | 1019.1 |
| 20260508162340 | 58 | 110 | 0.0 | 2.0 | 0.00 | 0.00 | 0.00 | 94 | 1019.1 |
| 20260508161610 | 58 | 110 | 1.0 | 4.0 | 0.00 | 0.00 | 0.00 | 94 | 1019.1 |
| 20260508161111 | 58 | 110 | 2.0 | 4.0 | 0.00 | 0.00 | 0.00 | 94 | 1019.0 |
| 20260508160829 | 58 | 134 | 1.0 | 3.0 | 0.00 | 0.00 | 0.00 | 94 | 1019.0 |
| 20260508160111 | 58 | 135 | 2.0 | 3.0 | 0.00 | 0.00 | 0.00 | 94 | 1019.1 |
| 20260508155610 | 58 | 134 | 0.0 | 2.0 | 0.00 | 0.00 | 0.00 | 95 | 1018.9 |
| 20260508155112 | 58 | 134 | 0.0 | 2.0 | 0.00 | 0.00 | 0.00 | 95 | 1019.0 |
| 20260508154610 | 58 | 134 | 0.0 | 3.0 | 0.00 | 0.00 | 0.00 | 95 | 1019.0 |
| 20260508154331 | 57 | 133 | 1.0 | 3.0 | 0.00 | 0.00 | 0.00 | 95 | 1018.9 |
| 20260508153610 | 57 | 135 | 0.0 | 2.0 | 0.00 | 0.00 | 0.00 | 94 | 1019.0 |
| 20260508153112 | 57 | 135 | 0.0 | 2.0 | 0.00 | 0.00 | 0.00 | 94 | 1019.0 |
| 20260508152830 | 57 | 155 | 0.0 | 3.0 | 0.00 | 0.00 | 0.00 | 94 | 1019.0 |
| 20260508152107 | 57 | 73 | 2.0 | 3.0 | 0.00 | 0.00 | 0.00 | 94 | 1018.9 |
| 20260508151607 | 57 | 52 | 0.0 | 0.0 | 0.00 | 0.00 | 0.00 | 95 | 1019.0 |
| 20260508151105 | 57 | 52 | 0.0 | 0.0 | 0.00 | 0.00 | 0.00 | 95 | 1018.9 |
| 20260508151021 | 57 | 49 | 0.0 | 0.0 | 0.00 | 0.00 | 0.00 | 94 | 1018.9 |
| 20260508151012 | 57 | 49 | 0.0 | 0.0 | 0.00 | 0.00 | 0.00 | 94 | 1018.9 |
| 20260508145822 | 57 | 48 | 0.0 | 0.0 | 0.00 | 0.00 | 0.00 | 94 | 1018.9 |
| 20260508145105 | 56 | 49 | 0.0 | 0.0 | 0.00 | 0.00 | 0.00 | 94 | 1018.8 |
| 20260508144601 | 56 | 48 | 0.0 | 0.0 | 0.00 | 0.00 | 0.00 | 94 | 1018.9 |
| 20260508144103 | 56 | 48 | 0.0 | 0.0 | 0.00 | 0.00 | 0.00 | 94 | 1018.9 |
| 20260508143602 | 56 | 48 | 0.0 | 2.0 | 0.00 | 0.00 | 0.00 | 94 | 1018.9 |
| 20260508143102 | 56 | 48 | 1.0 | 2.0 | 0.00 | 0.00 | 0.00 | 94 | 1018.9 |
| 20260508142602 | 0 | 48 | 0.0 | 1.0 | 0.00 | 0.00 | 0.00 | 1018.8 | |
| 20260508142102 | 56 | 48 | 0.0 | 2.0 | 0.00 | 0.00 | 0.00 | 94 | 1018.6 |
| 20260508141603 | 56 | 48 | 0.0 | 2.0 | 0.00 | 0.00 | 0.00 | 94 | 1018.7 |
| 20260508141102 | 56 | 48 | 1.0 | 2.0 | 0.00 | 0.00 | 0.00 | 94 | 1018.7 |
| 20260508140602 | 56 | 48 | 0.0 | 2.0 | 0.00 | 0.00 | 0.00 | 94 | 1018.7 |
| 20260508135602 | 56 | 48 | 0.0 | 0.0 | 0.00 | 0.00 | 0.00 | 94 | 1018.6 |
| 20260508135055 | 56 | 48 | 0.0 | 0.0 | 0.00 | 0.00 | 0.00 | 94 | 1018.5 |
| 20260508134552 | 56 | 48 | 0.0 | 0.0 | 0.00 | 0.00 | 0.00 | 94 | 1018.5 |
| 20260508134050 | 56 | 48 | 0.0 | 0.0 | 0.00 | 0.00 | 0.00 | 94 | 1018.6 |
| 20260508133537 | 56 | 48 | 0.0 | 2.0 | 0.00 | 0.00 | 0.00 | 94 | 1018.5 |
| 20260508133033 | 56 | 48 | 1.0 | 2.0 | 0.00 | 0.00 | 0.00 | 94 | 1018.4 |
| 20260508132532 | 55 | 48 | 0.0 | 1.0 | 0.00 | 0.00 | 0.00 | 94 | 1018.4 |
| 20260508132032 | 55 | 48 | 0.0 | 3.0 | 0.00 | 0.00 | 0.00 | 94 | 1018.2 |
| 20260508131531 | 55 | 48 | 1.0 | 3.0 | 0.00 | 0.00 | 0.00 | 93 | 1018.1 |
| 20260508131300 | 55 | 48 | 2.0 | 4.0 | 0.00 | 0.00 | 0.00 | 93 | 1018.1 |
| 20260508130531 | 55 | 48 | 2.0 | 4.0 | 0.00 | 0.00 | 0.00 | 93 | 1017.9 |
| 20260508130248 | 55 | 47 | 2.0 | 5.0 | 0.00 | 0.00 | 0.00 | 93 | 1017.9 |
| 20260508125531 | 55 | 59 | 3.0 | 5.0 | 0.00 | 0.00 | 0.00 | 93 | 1017.9 |
| 20260508125031 | 55 | 61 | 3.0 | 5.0 | 0.00 | 0.00 | 0.00 | 93 | 1018.1 |
| 20260508124533 | 55 | 51 | 4.0 | 6.0 | 0.00 | 0.00 | 0.00 | 92 | 1017.9 |
| 20260508124033 | 55 | 65 | 4.0 | 6.0 | 0.00 | 0.00 | 0.00 | 92 | 1018.1 |
| 20260508123533 | 55 | 38 | 4.0 | 7.0 | 0.00 | 0.00 | 0.00 | 92 | 1017.9 |
| 20260508123033 | 55 | 42 | 4.0 | 9.0 | 0.00 | 0.00 | 0.00 | 92 | 1018.1 |
| 20260508122754 | 55 | 45 | 5.0 | 9.0 | 0.00 | 0.00 | 0.00 | 91 | 1017.9 |
| 20260508122033 | 56 | 49 | 3.0 | 6.0 | 0.00 | 0.00 | 0.00 | 91 | 1017.9 |
| 20260508121532 | 56 | 58 | 2.0 | 6.0 | 0.00 | 0.00 | 0.00 | 91 | 1017.8 |
| 20260508121031 | 56 | 62 | 4.0 | 6.0 | 0.00 | 0.00 | 0.00 | 91 | 1017.6 |
| 20260508120754 | 56 | 55 | 3.0 | 4.0 | 0.00 | 0.00 | 0.00 | 91 | 1017.7 |
| 20260508120031 | 56 | 127 | 1.0 | 2.0 | 0.00 | 0.00 | 0.00 | 91 | 1017.7 |
| 20260508115531 | 56 | 127 | 0.0 | 1.0 | 0.00 | 0.00 | 0.00 | 91 | 1017.7 |
| 20260508115031 | 56 | 127 | 0.0 | 2.0 | 0.00 | 0.00 | 0.00 | 91 | 1017.6 |
| 20260508114754 | 56 | 127 | 0.0 | 2.0 | 0.00 | 0.00 | 0.00 | 91 | 1017.6 |
| 20260508114031 | 56 | 90 | 0.0 | 0.0 | 0.00 | 0.00 | 0.00 | 90 | 1017.7 |
| 20260508113757 | 56 | 90 | 0.0 | 0.0 | 0.00 | 0.00 | 0.00 | 90 | 1017.6 |
| 20260508113030 | 56 | 90 | 0.0 | 0.0 | 0.00 | 0.00 | 0.00 | 90 | 1017.5 |
| 20260508112753 | 56 | 90 | 0.0 | 0.0 | 0.00 | 0.00 | 0.00 | 90 | 1017.5 |
| 20260508112031 | 57 | 90 | 0.0 | 0.0 | 0.00 | 0.00 | 0.00 | 89 | 1017.5 |
| 20260508111751 | 57 | 90 | 0.0 | 0.0 | 0.00 | 0.00 | 0.00 | 89 | 1017.4 |
| 20260508111031 | 57 | 90 | 0.0 | 0.0 | 0.00 | 0.00 | 0.00 | 89 | 1017.5 |
| 20260508110528 | 57 | 90 | 0.0 | 1.0 | 0.00 | 0.00 | 0.00 | 89 | 1017.4 |
| 20260508110028 | 57 | 90 | 0.0 | 1.0 | 0.00 | 0.00 | 0.00 | 89 | 1017.4 |
| 20260508105526 | 57 | 90 | 0.0 | 1.0 | 0.00 | 0.00 | 0.00 | 88 | 1017.5 |
| 20260508105026 | 57 | 90 | 0.0 | 0.0 | 0.00 | 0.00 | 0.00 | 88 | 1017.3 |
| 20260508104526 | 57 | 90 | 0.0 | 0.0 | 0.00 | 0.00 | 0.00 | 89 | 1017.3 |
| 20260508104249 | 57 | 90 | 0.0 | 0.0 | 0.00 | 0.00 | 0.00 | 89 | 1017.2 |
| 20260508103524 | 57 | 90 | 0.0 | 0.0 | 0.00 | 0.00 | 0.00 | 88 | 1017.2 |
| 20260508103019 | 57 | 90 | 0.0 | 0.0 | 0.00 | 0.00 | 0.00 | 88 | 1017.2 |
| 20260508102519 | 58 | 90 | 0.0 | 0.0 | 0.00 | 0.00 | 0.00 | 88 | 1017.2 |
| 20260508102005 | 58 | 90 | 0.0 | 0.0 | 0.00 | 0.00 | 0.00 | 88 | 1017.2 |
| 20260508101503 | 58 | 90 | 0.0 | 0.0 | 0.00 | 0.00 | 0.00 | 87 | 1017.3 |
| 20260508101003 | 58 | 90 | 0.0 | 0.0 | 0.00 | 0.00 | 0.00 | 87 | 1017.3 |
| 20260508100502 | 58 | 90 | 0.0 | 0.0 | 0.00 | 0.00 | 0.00 | 86 | 1017.3 |
| 20260508100001 | 58 | 90 | 0.0 | 0.0 | 0.00 | 0.00 | 0.00 | 86 | 1017.3 |
| 20260508095727 | 58 | 90 | 0.0 | 0.0 | 0.00 | 0.00 | 0.00 | 86 | 1017.2 |
| 20260508095004 | 58 | 90 | 0.0 | 0.0 | 0.00 | 0.00 | 0.00 | 86 | 1017.2 |
| 20260508094725 | 58 | 90 | 0.0 | 0.0 | 0.00 | 0.00 | 0.00 | 86 | 1017.2 |
| 20260508094004 | 58 | 90 | 0.0 | 0.0 | 0.00 | 0.00 | 0.00 | 86 | 1017.1 |
| 20260508093502 | 58 | 90 | 0.0 | 0.0 | 0.00 | 0.00 | 0.00 | 85 | 1017.1 |
| 20260508093003 | 59 | 90 | 0.0 | 0.0 | 0.00 | 0.00 | 0.00 | 85 | 1017.1 |
| 20260508092501 | 59 | 90 | 0.0 | 0.0 | 0.00 | 0.00 | 0.00 | 85 | 1017.1 |
| 20260508092001 | 59 | 90 | 0.0 | 0.0 | 0.00 | 0.00 | 0.00 | 85 | 1017.2 |
| 20260508091500 | 59 | 90 | 0.0 | 0.0 | 0.00 | 0.00 | 0.00 | 85 | 1017.2 |
| 20260508091221 | 59 | 90 | 0.0 | 1.0 | 0.00 | 0.00 | 0.00 | 84 | 1017.3 |
| 20260508090500 | 59 | 90 | 0.0 | 3.0 | 0.00 | 0.00 | 0.00 | 84 | 1017.2 |
| 20260508090228 | 59 | 90 | 1.0 | 3.0 | 0.00 | 0.00 | 0.00 | 84 | 1017.2 |
| 20260508085501 | 59 | 90 | 0.0 | 0.0 | 0.00 | 0.00 | 0.00 | 84 | 1017.2 |
| 20260508085000 | 59 | 90 | 0.0 | 0.0 | 0.00 | 0.00 | 0.00 | 84 | 1017.2 |
| 20260508084725 | 59 | 90 | 0.0 | 0.0 | 0.00 | 0.00 | 0.00 | 84 | 1017.2 |
| 20260508084000 | 59 | 90 | 0.0 | 0.0 | 0.00 | 0.00 | 0.00 | 84 | 1017.2 |
| 20260508083503 | 59 | 90 | 0.0 | 0.0 | 0.00 | 0.00 | 0.00 | 84 | 1017.2 |
| 20260508083000 | 59 | 90 | 0.0 | 0.0 | 0.00 | 0.00 | 0.00 | 83 | 1017.1 |
| 20260508082721 | 60 | 90 | 0.0 | 0.0 | 0.00 | 0.00 | 0.00 | 83 | 1017.2 |
| 20260508082000 | 60 | 90 | 0.0 | 0.0 | 0.00 | 0.00 | 0.00 | 83 | 1017.3 |
| 20260508081500 | 60 | 90 | 0.0 | 0.0 | 0.00 | 0.00 | 0.00 | 83 | 1017.3 |
| 20260508080959 | 60 | 90 | 0.0 | 0.0 | 0.00 | 0.00 | 0.00 | 82 | 1017.3 |
| 20260508080458 | 60 | 90 | 0.0 | 2.0 | 0.00 | 0.00 | 0.00 | 82 | 1017.4 |
| 20260508075958 | 60 | 90 | 0.0 | 2.0 | 0.00 | 0.00 | 0.00 | 82 | 1017.4 |
| 20260508075459 | 60 | 90 | 0.0 | 2.0 | 0.00 | 0.00 | 0.00 | 82 | 1017.4 |
| 20260508074958 | 60 | 90 | 0.0 | 0.0 | 0.00 | 0.00 | 0.00 | 81 | 1017.3 |
| 20260508074458 | 61 | 90 | 0.0 | 3.0 | 0.00 | 0.00 | 0.00 | 81 | 1017.3 |
| 20260508073958 | 61 | 90 | 0.0 | 3.0 | 0.00 | 0.00 | 0.00 | 80 | 1017.3 |
| 20260508073459 | 61 | 90 | 1.0 | 3.0 | 0.00 | 0.00 | 0.00 | 80 | 1017.2 |
| 20260508072958 | 61 | 90 | 0.0 | 3.0 | 0.00 | 0.00 | 0.00 | 79 | 1017.2 |
| 20260508072458 | 61 | 90 | 0.0 | 3.0 | 0.00 | 0.00 | 0.00 | 79 | 1017.3 |
| 20260508071958 | 61 | 90 | 1.0 | 4.0 | 0.00 | 0.00 | 0.00 | 78 | 1017.2 |
| 20260508071723 | 62 | 90 | 2.0 | 4.0 | 0.00 | 0.00 | 0.00 | 77 | 1017.2 |
| 20260508070957 | 62 | 90 | 1.0 | 4.0 | 0.00 | 0.00 | 0.00 | 77 | 1017.1 |
| 20260508070459 | 62 | 90 | 0.0 | 1.0 | 0.00 | 0.00 | 0.00 | 77 | 1017.1 |
| 20260508065958 | 62 | 90 | 0.0 | 1.0 | 0.00 | 0.00 | 0.00 | 76 | 1017.1 |
| 20260508065457 | 62 | 90 | 0.0 | 2.0 | 0.00 | 0.00 | 0.00 | 76 | 1017.1 |
| 20260508064958 | 62 | 90 | 1.0 | 2.0 | 0.00 | 0.00 | 0.00 | 76 | 1017.1 |
| 20260508064715 | 63 | 90 | 0.0 | 2.0 | 0.00 | 0.00 | 0.00 | 76 | 1017.0 |
| 20260508063959 | 63 | 90 | 1.0 | 2.0 | 0.00 | 0.00 | 0.00 | 76 | 1017.0 |
| 20260508063717 | 63 | 90 | 0.0 | 2.0 | 0.00 | 0.00 | 0.00 | 76 | 1017.0 |
| 20260508062958 | 62 | 90 | 1.0 | 3.0 | 0.00 | 0.00 | 0.00 | 76 | 1016.9 |
| 20260508062456 | 62 | 90 | 1.0 | 3.0 | 0.00 | 0.00 | 0.00 | 76 | 1016.9 |
| 20260508061957 | 62 | 90 | 2.0 | 3.0 | 0.00 | 0.00 | 0.00 | 77 | 1016.9 |
| 20260508061717 | 62 | 90 | 0.0 | 1.0 | 0.00 | 0.00 | 0.00 | 77 | 1016.8 |
| 20260508060957 | 62 | 90 | 0.0 | 1.0 | 0.00 | 0.00 | 0.00 | 77 | 1016.8 |
| 20260508060456 | 62 | 90 | 0.0 | 2.0 | 0.00 | 0.00 | 0.00 | 76 | 1016.9 |
| 20260508055958 | 62 | 90 | 0.0 | 2.0 | 0.00 | 0.00 | 0.00 | 76 | 1016.9 |
| 20260508055725 | 62 | 90 | 0.0 | 4.0 | 0.00 | 0.00 | 0.00 | 76 | 1016.9 |
| 20260508054958 | 62 | 90 | 2.0 | 4.0 | 0.00 | 0.00 | 0.00 | 76 | 1016.8 |
| 20260508054456 | 62 | 104 | 1.0 | 3.0 | 0.00 | 0.00 | 0.00 | 77 | 1016.8 |
| 20260508054217 | 62 | 104 | 2.0 | 2.0 | 0.00 | 0.00 | 0.00 | 77 | 1016.8 |
| 20260508053456 | 62 | 104 | 1.0 | 2.0 | 0.00 | 0.00 | 0.00 | 77 | 1016.8 |
| 20260508052957 | 63 | 104 | 0.0 | 2.0 | 0.00 | 0.00 | 0.00 | 77 | 1016.8 |
| 20260508052456 | 63 | 104 | 0.0 | 2.0 | 0.00 | 0.00 | 0.00 | 77 | 1016.8 |
| 20260508052437 | 63 | 104 | 0.0 | 0.0 | 0.00 | 0.00 | 0.00 | 77 | 1016.8 |
| 20260508051456 | 63 | 104 | 0.0 | 0.0 | 0.00 | 0.00 | 0.00 | 76 | 1016.8 |
| 20260508050957 | 64 | 104 | 0.0 | 0.0 | 0.00 | 0.00 | 0.00 | 76 | 1016.7 |
| 20260508050456 | 64 | 104 | 0.0 | 1.0 | 0.00 | 0.00 | 0.00 | 75 | 1016.7 |
| 20260508045958 | 64 | 104 | 0.0 | 2.0 | 0.00 | 0.00 | 0.00 | 75 | 1016.8 |
| 20260508045456 | 64 | 104 | 0.0 | 3.0 | 0.00 | 0.00 | 0.00 | 75 | 1016.8 |
| 20260508044957 | 65 | 104 | 2.0 | 3.0 | 0.00 | 0.00 | 0.00 | 74 | 1016.8 |
| 20260508044931 | 65 | 78 | 0.0 | 1.0 | 0.00 | 0.00 | 0.00 | 74 | 1016.7 |
| 20260508044225 | 65 | 78 | 0.0 | 1.0 | 0.00 | 0.00 | 0.00 | 74 | 1016.6 |
| 20260508043455 | 65 | 78 | 0.0 | 1.0 | 0.00 | 0.00 | 0.00 | 74 | 1016.7 |
| 20260508042957 | 65 | 78 | 0.0 | 1.0 | 0.00 | 0.00 | 0.00 | 74 | 1016.6 |
| 20260508042455 | 65 | 78 | 0.0 | 1.0 | 0.00 | 0.00 | 0.00 | 74 | 1016.5 |
| 20260508041957 | 65 | 78 | 0.0 | 1.0 | 0.00 | 0.00 | 0.00 | 74 | 1016.5 |
| 20260508041455 | 65 | 78 | 0.0 | 0.0 | 0.00 | 0.00 | 0.00 | 73 | 1016.5 |
| 20260508040956 | 66 | 78 | 0.0 | 0.0 | 0.00 | 0.00 | 0.00 | 73 | 1016.4 |
| 20260508040715 | 66 | 78 | 0.0 | 0.0 | 0.00 | 0.00 | 0.00 | 73 | 1016.4 |
| 20260508035956 | 66 | 78 | 0.0 | 0.0 | 0.00 | 0.00 | 0.00 | 73 | 1016.3 |
| 20260508035454 | 66 | 78 | 0.0 | 0.0 | 0.00 | 0.00 | 0.00 | 72 | 1016.3 |
| 20260508034956 | 66 | 78 | 0.0 | 0.0 | 0.00 | 0.00 | 0.00 | 72 | 1016.3 |
| 20260508034454 | 66 | 78 | 0.0 | 0.0 | 0.00 | 0.00 | 0.00 | 71 | 1016.2 |
| 20260508033955 | 66 | 78 | 0.0 | 0.0 | 0.00 | 0.00 | 0.00 | 71 | 1016.2 |
| 20260508033454 | 67 | 78 | 0.0 | 0.0 | 0.00 | 0.00 | 0.00 | 71 | 1016.1 |
| 20260508032955 | 0 | 0.0 | 0.0 | 0.00 | 0.00 | 0.00 | 1016.1 | ||
| 20260508032451 | 67 | 78 | 0.0 | 2.0 | 0.00 | 0.00 | 0.00 | 70 | 1016.0 |
| 20260508032437 | 67 | 78 | 0.0 | 2.0 | 0.00 | 0.00 | 0.00 | 70 | 1016.1 |
| 20260508031450 | 68 | 78 | 0.0 | 0.0 | 0.00 | 0.00 | 0.00 | 69 | 1016.1 |
| 20260508030952 | 68 | 78 | 0.0 | 0.0 | 0.00 | 0.00 | 0.00 | 69 | 1016.1 |
| 20260508030451 | 68 | 78 | 0.0 | 0.0 | 0.00 | 0.00 | 0.00 | 69 | 1016.1 |
| 20260508030429 | 68 | 78 | 0.0 | 0.0 | 0.00 | 0.00 | 0.00 | 68 | 1016.1 |
| 20260508025707 | 69 | 78 | 0.0 | 0.0 | 0.00 | 0.00 | 0.00 | 68 | 1016.1 |
| 20260508024952 | 69 | 78 | 0.0 | 3.0 | 0.00 | 0.00 | 0.00 | 67 | 1016.0 |
| 20260508024451 | 69 | 78 | 0.0 | 4.0 | 0.00 | 0.00 | 0.00 | 66 | 1016.0 |
| 20260508023951 | 70 | 78 | 1.0 | 4.0 | 0.00 | 0.00 | 0.00 | 65 | 1015.9 |
| 20260508023450 | 70 | 78 | 0.0 | 0.0 | 0.00 | 0.00 | 0.00 | 64 | 1015.8 |
| 20260508023212 | 71 | 78 | 0.0 | 0.0 | 0.00 | 0.00 | 0.00 | 65 | 1016.0 |
| 20260508022450 | 71 | 78 | 0.0 | 0.0 | 0.00 | 0.00 | 0.00 | 65 | 1015.9 |
| 20260508021951 | 71 | 78 | 0.0 | 0.0 | 0.00 | 0.00 | 0.00 | 64 | 1015.9 |
| 20260508021449 | 72 | 78 | 0.0 | 0.0 | 0.00 | 0.00 | 0.00 | 66 | 1015.9 |
| 20260508020951 | 72 | 78 | 0.0 | 0.0 | 0.00 | 0.00 | 0.00 | 66 | 1015.9 |
| 20260508020715 | 72 | 78 | 0.0 | 0.0 | 0.00 | 0.00 | 0.00 | 65 | 1015.8 |
| 20260508015950 | 72 | 78 | 0.0 | 0.0 | 0.00 | 0.00 | 0.00 | 64 | 1015.9 |
| 20260508015449 | 71 | 78 | 0.0 | 2.0 | 0.00 | 0.00 | 0.00 | 65 | 1015.8 |
| 20260508014948 | 71 | 78 | 1.0 | 3.0 | 0.00 | 0.00 | 0.00 | 65 | 1015.9 |
| 20260508014713 | 71 | 78 | 0.0 | 3.0 | 0.00 | 0.00 | 0.00 | 65 | 1015.8 |
| 20260508013949 | 71 | 78 | 1.0 | 3.0 | 0.00 | 0.00 | 0.00 | 63 | 1015.8 |
| 20260508013450 | 71 | 78 | 0.0 | 0.0 | 0.00 | 0.00 | 0.00 | 64 | 1015.8 |
| 20260508012949 | 71 | 78 | 0.0 | 3.0 | 0.00 | 0.00 | 0.00 | 64 | 1015.8 |
| 20260508012449 | 71 | 78 | 0.0 | 3.0 | 0.00 | 0.00 | 0.00 | 64 | 1015.8 |
| 20260508011949 | 71 | 78 | 1.0 | 3.0 | 0.00 | 0.00 | 0.00 | 64 | 1015.9 |
| 20260508011448 | 70 | 78 | 0.0 | 2.0 | 0.00 | 0.00 | 0.00 | 64 | 1015.9 |
| 20260508010948 | 71 | 78 | 2.0 | 2.0 | 0.00 | 0.00 | 0.00 | 63 | 1016.0 |
| 20260508010715 | 71 | 78 | 0.0 | 4.0 | 0.00 | 0.00 | 0.00 | 63 | 1016.0 |
| 20260508005947 | 71 | 78 | 2.0 | 4.0 | 0.00 | 0.00 | 0.00 | 63 | 1016.0 |
| 20260508005447 | 71 | 79 | 2.0 | 4.0 | 0.00 | 0.00 | 0.00 | 64 | 1016.1 |
| 20260508004947 | 71 | 79 | 0.0 | 4.0 | 0.00 | 0.00 | 0.00 | 62 | 1016.1 |
| 20260508004447 | 71 | 79 | 2.0 | 4.0 | 0.00 | 0.00 | 0.00 | 63 | 1016.0 |
| 20260508003948 | 71 | 79 | 2.0 | 4.0 | 0.00 | 0.00 | 0.00 | 62 | 1016.1 |
| 20260508003447 | 71 | 79 | 2.0 | 4.0 | 0.00 | 0.00 | 0.00 | 61 | 1016.1 |
| 20260508002946 | 72 | 79 | 3.0 | 4.0 | 0.00 | 0.00 | 0.00 | 58 | 1016.2 |
| 20260508002446 | 72 | 79 | 2.0 | 6.0 | 0.00 | 0.00 | 0.00 | 58 | 1016.3 |
| 20260508001947 | 73 | 79 | 3.0 | 6.0 | 0.00 | 0.00 | 0.00 | 59 | 1016.2 |
| 20260508001449 | 73 | 83 | 2.0 | 7.0 | 0.00 | 0.00 | 0.00 | 60 | 1016.2 |
| 20260508000948 | 73 | 87 | 4.0 | 7.0 | 0.00 | 0.00 | 0.00 | 57 | 1016.2 |
| 20260508000712 | 74 | 69 | 5.0 | 6.0 | 0.00 | 0.00 | 0.00 | 57 | 1016.3 |
| 20260507235947 | 74 | 89 | 3.0 | 6.0 | 0.00 | 0.00 | 0.00 | 57 | 1016.3 |
| 20260507235449 | 74 | 79 | 4.0 | 6.0 | 0.00 | 0.00 | 0.00 | 55 | 1016.4 |
| 20260507234947 | 74 | 79 | 4.0 | 6.0 | 0.00 | 0.00 | 0.00 | 55 | 1016.5 |
| 20260507234448 | 74 | 89 | 3.0 | 9.0 | 0.00 | 0.00 | 0.00 | 55 | 1016.5 |
| 20260507233949 | 74 | 93 | 5.0 | 9.0 | 0.00 | 0.00 | 0.00 | 54 | 1016.5 |
| 20260507233937 | 74 | 66 | 4.0 | 7.0 | 0.00 | 0.00 | 0.00 | 54 | 1016.6 |
| 20260507232946 | 75 | 87 | 4.0 | 7.0 | 0.00 | 0.00 | 0.00 | 52 | 1016.6 |
| 20260507232446 | 76 | 76 | 4.0 | 7.0 | 0.00 | 0.00 | 0.00 | 52 | 1016.6 |
| 20260507232205 | 76 | 127 | 2.0 | 4.0 | 0.00 | 0.00 | 0.00 | 52 | 1016.6 |
| 20260507231447 | 76 | 118 | 2.0 | 5.0 | 0.00 | 0.00 | 0.00 | 52 | 1016.7 |
| 20260507230945 | 76 | 102 | 2.0 | 6.0 | 0.00 | 0.00 | 0.00 | 53 | 1016.8 |
| 20260507230446 | 76 | 124 | 2.0 | 6.0 | 0.00 | 0.00 | 0.00 | 53 | 1016.8 |
| 20260507225945 | 76 | 130 | 2.0 | 5.0 | 0.00 | 0.00 | 0.00 | 53 | 1016.9 |
| 20260507225446 | 76 | 116 | 2.0 | 5.0 | 0.00 | 0.00 | 0.00 | 54 | 1017.0 |
| 20260507224945 | 76 | 137 | 3.0 | 5.0 | 0.00 | 0.00 | 0.00 | 55 | 1017.0 |
| 20260507224711 | 76 | 87 | 3.0 | 5.0 | 0.00 | 0.00 | 0.00 | 54 | 1017.0 |
| 20260507223945 | 75 | 131 | 2.0 | 6.0 | 0.00 | 0.00 | 0.00 | 56 | 1017.1 |
| 20260507223704 | 75 | 116 | 2.0 | 6.0 | 0.00 | 0.00 | 0.00 | 55 | 1017.2 |
| 20260507222945 | 76 | 87 | 3.0 | 5.0 | 0.00 | 0.00 | 0.00 | 55 | 1017.3 |
| 20260507222932 | 76 | 111 | 3.0 | 7.0 | 0.00 | 0.00 | 0.00 | 55 | 1017.3 |
| 20260507221946 | 76 | 116 | 2.0 | 7.0 | 0.00 | 0.00 | 0.00 | 55 | 1017.4 |
| 20260507221446 | 75 | 94 | 2.0 | 5.0 | 0.00 | 0.00 | 0.00 | 55 | 1017.5 |
| 20260507220945 | 76 | 90 | 3.0 | 7.0 | 0.00 | 0.00 | 0.00 | 56 | 1017.6 |
| 20260507220446 | 75 | 97 | 3.0 | 7.0 | 0.00 | 0.00 | 0.00 | 57 | 1017.7 |
| 20260507215943 | 75 | 76 | 4.0 | 6.0 | 0.00 | 0.00 | 0.00 | 56 | 1017.7 |
| 20260507215443 | 75 | 94 | 3.0 | 6.0 | 0.00 | 0.00 | 0.00 | 57 | 1017.8 |
| 20260507214944 | 76 | 123 | 4.0 | 6.0 | 0.00 | 0.00 | 0.00 | 56 | 1017.8 |
| 20260507214443 | 76 | 99 | 3.0 | 7.0 | 0.00 | 0.00 | 0.00 | 57 | 1017.8 |
| 20260507213943 | 75 | 93 | 3.0 | 7.0 | 0.00 | 0.00 | 0.00 | 57 | 1017.9 |
| 20260507213705 | 76 | 86 | 3.0 | 7.0 | 0.00 | 0.00 | 0.00 | 56 | 1017.8 |
| 20260507212935 | 75 | 148 | 3.0 | 6.0 | 0.00 | 0.00 | 0.00 | 56 | 1018.1 |
| 20260507212435 | 75 | 114 | 2.0 | 6.0 | 0.00 | 0.00 | 0.00 | 57 | 1018.1 |
| 20260507211936 | 75 | 97 | 4.0 | 6.0 | 0.00 | 0.00 | 0.00 | 57 | 1018.1 |
| 20260507211436 | 75 | 133 | 3.0 | 6.0 | 0.00 | 0.00 | 0.00 | 55 | 1018.3 |
| 20260507210936 | 75 | 147 | 3.0 | 6.0 | 0.00 | 0.00 | 0.00 | 56 | 1018.3 |
| 20260507210433 | 76 | 97 | 4.0 | 6.0 | 0.00 | 0.00 | 0.00 | 56 | 1018.4 |
| 20260507205931 | 76 | 120 | 3.0 | 7.0 | 0.00 | 0.00 | 0.00 | 57 | 1018.4 |
| 20260507205431 | 76 | 140 | 3.0 | 7.0 | 0.00 | 0.00 | 0.00 | 56 | 1018.5 |
| 20260507205152 | 76 | 96 | 3.0 | 9.0 | 0.00 | 0.00 | 0.00 | 56 | 1018.6 |
| 20260507204432 | 76 | 104 | 3.0 | 9.0 | 0.00 | 0.00 | 0.00 | 56 | 1018.5 |
| 20260507203931 | 76 | 94 | 2.0 | 7.0 | 0.00 | 0.00 | 0.00 | 56 | 1018.6 |
| 20260507203429 | 76 | 128 | 2.0 | 6.0 | 0.00 | 0.00 | 0.00 | 57 | 1018.6 |
| 20260507202927 | 76 | 107 | 2.0 | 7.0 | 0.00 | 0.00 | 0.00 | 55 | 1018.6 |
| 20260507202422 | 76 | 102 | 2.0 | 7.0 | 0.00 | 0.00 | 0.00 | 56 | 1018.7 |
| 20260507201922 | 76 | 99 | 4.0 | 6.0 | 0.00 | 0.00 | 0.00 | 56 | 1018.6 |
| 20260507201420 | 76 | 118 | 2.0 | 5.0 | 0.00 | 0.00 | 0.00 | 57 | 1018.6 |
| 20260507200915 | 76 | 130 | 3.0 | 5.0 | 0.00 | 0.00 | 0.00 | 58 | 1018.7 |
| 20260507200410 | 75 | 128 | 3.0 | 5.0 | 0.00 | 0.00 | 0.00 | 58 | 1018.7 |
| 20260507195910 | 75 | 103 | 2.0 | 5.0 | 0.00 | 0.00 | 0.00 | 58 | 1018.7 |
| 20260507195410 | 75 | 137 | 3.0 | 5.0 | 0.00 | 0.00 | 0.00 | 57 | 1018.8 |
| 20260507195131 | 75 | 100 | 3.0 | 6.0 | 0.00 | 0.00 | 0.00 | 58 | 1018.8 |
| 20260507194410 | 75 | 102 | 3.0 | 7.0 | 0.00 | 0.00 | 0.00 | 58 | 1018.8 |
| 20260507193903 | 74 | 89 | 4.0 | 7.0 | 0.00 | 0.00 | 0.00 | 58 | 1018.8 |
| 20260507193403 | 74 | 103 | 4.0 | 7.0 | 0.00 | 0.00 | 0.00 | 58 | 1018.9 |
| 20260507192901 | 74 | 110 | 4.0 | 7.0 | 0.00 | 0.00 | 0.00 | 58 | 1018.9 |
| 20260507192404 | 74 | 113 | 2.0 | 5.0 | 0.00 | 0.00 | 0.00 | 60 | 1018.9 |
| 20260507191903 | 74 | 130 | 2.0 | 6.0 | 0.00 | 0.00 | 0.00 | 60 | 1019.0 |
| 20260507191403 | 74 | 135 | 2.0 | 7.0 | 0.00 | 0.00 | 0.00 | 60 | 1019.0 |
| 20260507190902 | 73 | 123 | 3.0 | 7.0 | 0.00 | 0.00 | 0.00 | 60 | 1019.1 |
| 20260507190357 | 73 | 131 | 3.0 | 5.0 | 0.00 | 0.00 | 0.00 | 61 | 1019.1 |
| 20260507185856 | 73 | 128 | 3.0 | 5.0 | 0.00 | 0.00 | 0.00 | 60 | 1019.1 |
| 20260507185357 | 73 | 128 | 2.0 | 6.0 | 0.00 | 0.00 | 0.00 | 61 | 1019.2 |
| 20260507185054 | 73 | 107 | 1.0 | 6.0 | 0.00 | 0.00 | 0.00 | 62 | 1019.2 |
| 20260507185043 | 73 | 103 | 3.0 | 6.0 | 0.00 | 0.00 | 0.00 | 62 | 1019.1 |
| 20260507183845 | 72 | 89 | 3.0 | 6.0 | 0.00 | 0.00 | 0.00 | 63 | 1019.3 |
| 20260507183340 | 72 | 107 | 3.0 | 6.0 | 0.00 | 0.00 | 0.00 | 62 | 1019.2 |
| 20260507182841 | 72 | 97 | 3.0 | 6.0 | 0.00 | 0.00 | 0.00 | 63 | 1019.3 |
| 20260507182341 | 72 | 131 | 2.0 | 6.0 | 0.00 | 0.00 | 0.00 | 64 | 1019.2 |
| 20260507181839 | 71 | 116 | 2.0 | 5.0 | 0.00 | 0.00 | 0.00 | 63 | 1019.2 |
| 20260507181341 | 71 | 111 | 2.0 | 5.0 | 0.00 | 0.00 | 0.00 | 63 | 1019.2 |
| 20260507180839 | 71 | 116 | 3.0 | 5.0 | 0.00 | 0.00 | 0.00 | 63 | 1019.1 |
| 20260507180340 | 71 | 118 | 2.0 | 5.0 | 0.00 | 0.00 | 0.00 | 64 | 1019.1 |
| 20260507175839 | 71 | 97 | 2.0 | 6.0 | 0.00 | 0.00 | 0.00 | 65 | 1019.0 |